When you browse on this site, cookies collect data to enhance your experience and personalize the content and advertising you see.
Visit our Privacy Policy to learn more. By continuing to use the site, you agree to this use of cookies and data.
  • In Spain
  • List of Countries
  • For 7 days
  • Water Temperature
  • Satellite Maps
  • Weather Map
  • Weather Widgets
  • user-avatar
    Login

    Hourly Weather Kichevo

    Today, 19 June, Wednesday

    Time Temperature Precipitation Wind Pressure Humidity
    00:00 +15°C° 0.1 mm 0 mps 690 mmHg 80%
    01:00 +15°C° 0 mm 0 mps 690 mmHg 81%
    02:00 +14°C° 0 mm 0 mps 690 mmHg 82%
    03:00 +14°C° 0 mm 0 mps 690 mmHg 82%
    04:00 +14°C° 0 mm 0 mps 689 mmHg 83%
    05:00 +15°C° 0 mm 0 mps 690 mmHg 80%
    06:00 +17°C° 0 mm 0 mps 690 mmHg 77%
    07:00 +19°C° 0 mm 0 mps 691 mmHg 75%
    08:00 +20°C° 0.5 mm 0 mps 691 mmHg 71%
    09:00 +22°C° 0.5 mm 0 mps 691 mmHg 67%
    10:00 +25°C° 0.5 mm 1 mps 691 mmHg 63%
    11:00 +25°C° 0.8 mm 1 mps 691 mmHg 60%
    12:00 +26°C° 0.8 mm 1 mps 691 mmHg 58%
    13:00 +26°C° 0.8 mm 1 mps 691 mmHg 55%
    14:00 +26°C° 0.6 mm 1 mps 690 mmHg 58%
    15:00 +26°C° 0.6 mm 1 mps 690 mmHg 61%
    16:00 +25°C° 0.6 mm 1 mps 690 mmHg 64%
    17:00 +24°C° 0.3 mm 1 mps 689 mmHg 70%
    18:00 +22°C° 0.3 mm 1 mps 689 mmHg 77%
    19:00 +20°C° 0.3 mm 1 mps 689 mmHg 84%
    20:00 +19°C° 0 mm 1 mps 689 mmHg 85%
    21:00 +18°C° 0 mm 1 mps 689 mmHg 86%
    22:00 +18°C° 0 mm 1 mps 689 mmHg 87%
    23:00 +16°C° 0 mm 1 mps 689 mmHg 87%

    Tomorrow, 20 June, Thursday

    Time Temperature Precipitation Wind Pressure Humidity
    00:00 +16°C° 0 mm 1 mps 689 mmHg 87%
    01:00 +16°C° 0 mm 1 mps 689 mmHg 87%
    02:00 +15°C° 0 mm 1 mps 689 mmHg 86%
    03:00 +15°C° 0 mm 1 mps 688 mmHg 86%
    04:00 +15°C° 0 mm 1 mps 688 mmHg 85%
    05:00 +18°C° 0 mm 1 mps 689 mmHg 81%
    06:00 +20°C° 0 mm 1 mps 689 mmHg 77%
    07:00 +21°C° 0 mm 1 mps 690 mmHg 73%
    08:00 +23°C° 0.2 mm 1 mps 690 mmHg 69%
    09:00 +24°C° 0.2 mm 1 mps 690 mmHg 64%
    10:00 +25°C° 0.2 mm 1 mps 690 mmHg 59%
    11:00 +26°C° 1.1 mm 1 mps 690 mmHg 59%
    12:00 +26°C° 1.1 mm 1 mps 690 mmHg 60%
    13:00 +26°C° 1.1 mm 1 mps 690 mmHg 60%
    14:00 +26°C° 1.4 mm 1 mps 690 mmHg 62%
    15:00 +26°C° 1.4 mm 1 mps 690 mmHg 64%
    16:00 +25°C° 1.4 mm 1 mps 690 mmHg 67%
    17:00 +24°C° 0.6 mm 1 mps 689 mmHg 71%
    18:00 +22°C° 0.6 mm 1 mps 689 mmHg 76%
    19:00 +21°C° 0.6 mm 1 mps 689 mmHg 81%
    20:00 +20°C° 0 mm 1 mps 689 mmHg 83%
    21:00 +19°C° 0 mm 1 mps 689 mmHg 85%
    22:00 +18°C° 0 mm 1 mps 690 mmHg 87%
    23:00 +18°C° 0 mm 1 mps 690 mmHg 87%

    Day after tomorrow, 21 June, Friday

    Time Temperature Precipitation Wind Pressure Humidity
    00:00 +18°C° 0 mm 1 mps 690 mmHg 87%
    01:00 +16°C° 0 mm 1 mps 690 mmHg 87%
    02:00 +16°C° 0 mm 1 mps 689 mmHg 87%
    03:00 +16°C° 0 mm 1 mps 689 mmHg 87%
    04:00 +16°C° 0 mm 1 mps 689 mmHg 87%
    05:00 +19°C° 0 mm 1 mps 690 mmHg 83%
    06:00 +18°C° 0 mm 0 mps 690 mmHg 80%
    07:00 +20°C° 0 mm 0 mps 691 mmHg 76%
    08:00 +22°C° 0 mm 0 mps 691 mmHg 71%
    09:00 +23°C° 0 mm 0 mps 691 mmHg 67%
    10:00 +24°C° 0 mm 0 mps 692 mmHg 62%
    11:00 +25°C° 0.6 mm 0 mps 692 mmHg 62%
    12:00 +27°C° 0.6 mm 1 mps 691 mmHg 62%
    13:00 +27°C° 0.6 mm 1 mps 691 mmHg 62%
    14:00 +27°C° 1.2 mm 1 mps 691 mmHg 64%
    15:00 +26°C° 1.2 mm 1 mps 691 mmHg 66%
    16:00 +26°C° 1.2 mm 1 mps 691 mmHg 69%
    17:00 +24°C° 0.4 mm 1 mps 691 mmHg 73%
    18:00 +23°C° 0.4 mm 1 mps 691 mmHg 76%
    19:00 +19°C° 0.4 mm 0 mps 690 mmHg 80%
    20:00 +21°C° 0.1 mm 1 mps 691 mmHg 82%
    21:00 +20°C° 0.1 mm 1 mps 691 mmHg 84%
    22:00 +19°C° 0.1 mm 1 mps 691 mmHg 86%
    23:00 +19°C° 0 mm 1 mps 691 mmHg 86%

    22 June, Saturday

    Time Temperature Precipitation Wind Pressure Humidity
    00:00 +18°C° 0 mm 1 mps 691 mmHg 87%
    01:00 +18°C° 0 mm 1 mps 691 mmHg 87%
    02:00 +18°C° 0 mm 1 mps 690 mmHg 86%
    03:00 +18°C° 0 mm 1 mps 690 mmHg 86%
    04:00 +18°C° 0 mm 1 mps 690 mmHg 86%
    05:00 +18°C° 0 mm 0 mps 691 mmHg 82%
    06:00 +20°C° 0 mm 0 mps 691 mmHg 79%
    07:00 +21°C° 0 mm 0 mps 692 mmHg 76%
    08:00 +23°C° 0 mm 0 mps 692 mmHg 70%
    09:00 +24°C° 0 mm 0 mps 692 mmHg 65%
    10:00 +26°C° 0 mm 0 mps 693 mmHg 60%
    11:00 +26°C° 0 mm 0 mps 693 mmHg 58%
    12:00 +27°C° 0 mm 0 mps 693 mmHg 55%
    13:00 +29°C° 0 mm 1 mps 692 mmHg 53%
    14:00 +29°C° 0 mm 1 mps 692 mmHg 53%
    15:00 +29°C° 0 mm 1 mps 692 mmHg 53%
    16:00 +29°C° 0 mm 1 mps 692 mmHg 53%
    17:00 +27°C° 0 mm 1 mps 691 mmHg 59%
    18:00 +25°C° 0 mm 1 mps 691 mmHg 64%
    19:00 +23°C° 0 mm 1 mps 691 mmHg 70%
    20:00 +22°C° 0 mm 1 mps 691 mmHg 71%
    21:00 +21°C° 0 mm 1 mps 691 mmHg 72%
    22:00 +20°C° 0 mm 1 mps 691 mmHg 73%
    23:00 +20°C° 0 mm 1 mps 691 mmHg 74%

    23 June, Sunday

    Time Temperature Precipitation Wind Pressure Humidity
    00:00 +20°C° 0 mm 1 mps 691 mmHg 75%
    01:00 +19°C° 0 mm 1 mps 691 mmHg 75%
    02:00 +19°C° 0 mm 1 mps 691 mmHg 75%
    03:00 +19°C° 0 mm 1 mps 690 mmHg 74%
    04:00 +19°C° 0 mm 1 mps 690 mmHg 74%
    05:00 +21°C° 0 mm 1 mps 691 mmHg 70%
    06:00 +21°C° 0 mm 0 mps 691 mmHg 67%
    07:00 +23°C° 0 mm 0 mps 692 mmHg 64%
    08:00 +24°C° 0 mm 0 mps 692 mmHg 60%
    09:00 +25°C° 0 mm 0 mps 693 mmHg 56%
    10:00 +29°C° 0 mm 1 mps 693 mmHg 53%
    11:00 +29°C° 0 mm 1 mps 693 mmHg 51%
    12:00 +30°C° 0 mm 1 mps 693 mmHg 50%
    13:00 +30°C° 0 mm 1 mps 693 mmHg 49%
    14:00 +30°C° 0 mm 1 mps 692 mmHg 51%
    15:00 +30°C° 0 mm 1 mps 692 mmHg 54%
    16:00 +29°C° 0 mm 1 mps 692 mmHg 56%
    17:00 +27°C° 0 mm 1 mps 692 mmHg 62%
    18:00 +25°C° 0 mm 1 mps 692 mmHg 67%
    19:00 +24°C° 0 mm 1 mps 692 mmHg 73%
    20:00 +23°C° 0 mm 1 mps 692 mmHg 75%
    21:00 +22°C° 0 mm 1 mps 692 mmHg 77%
    22:00 +21°C° 0 mm 1 mps 692 mmHg 79%
    23:00 +20°C° 0 mm 1 mps 692 mmHg 80%

    24 June, Monday

    Time Temperature Precipitation Wind Pressure Humidity
    00:00 +20°C° 0 mm 1 mps 692 mmHg 80%
    01:00 +20°C° 0 mm 1 mps 692 mmHg 81%
    02:00 +20°C° 0 mm 1 mps 692 mmHg 83%
    03:00 +19°C° 0 mm 1 mps 692 mmHg 85%
    04:00 +19°C° 0 mm 1 mps 692 mmHg 86%
    05:00 +21°C° 0 mm 1 mps 693 mmHg 82%
    06:00 +22°C° 0 mm 1 mps 693 mmHg 79%
    07:00 +24°C° 0 mm 1 mps 694 mmHg 75%
    08:00 +25°C° 0 mm 1 mps 694 mmHg 71%
    09:00 +26°C° 0 mm 1 mps 694 mmHg 67%
    10:00 +27°C° 0 mm 2 mps 694 mmHg 63%
    11:00 +27°C° 0.1 mm 2 mps 694 mmHg 62%
    12:00 +28°C° 0.1 mm 2 mps 694 mmHg 62%
    13:00 +28°C° 0.1 mm 2 mps 694 mmHg 62%
    14:00 +27°C° 0.2 mm 2 mps 694 mmHg 64%
    15:00 +27°C° 0.2 mm 2 mps 693 mmHg 66%
    16:00 +27°C° 0.2 mm 2 mps 693 mmHg 69%
    17:00 +25°C° 0.1 mm 2 mps 693 mmHg 74%
    18:00 +24°C° 0.1 mm 2 mps 693 mmHg 79%
    19:00 +21°C° 0.1 mm 2 mps 693 mmHg 84%
    20:00 +20°C° 0 mm 2 mps 693 mmHg 86%
    21:00 +19°C° 0 mm 2 mps 693 mmHg 88%
    22:00 +18°C° 0 mm 2 mps 694 mmHg 90%
    23:00 +17°C° 0 mm 2 mps 693 mmHg 91%
    Show more